Weather History for Doha, Qatar

Change the Weather History Date:

Friday, October 15, 2010

  Actual Average Record
Temperature  
Mean Temperature 86 °F -  
Max Temperature 94 °F 90 °F 104 °F (2004)
Min Temperature 78 °F 70 °F 74 °F (2013)
Cooling Degree Days 21    
Growing Degree Days 36 (Base 50)    
Moisture  
Dew Point 67 °F    
Average Humidity 51    
Maximum Humidity 62    
Minimum Humidity 38    
Precipitation  
Precipitation 0.00 in 0.00 in - ()
Sea Level Pressure  
Sea Level Pressure 29.83 in    
Wind  
Wind Speed 7 mph ()    
Max Wind Speed 15 mph    
Max Gust Speed -    
Visibility 6.9 miles    
Events      
Averages and records for this station are not official NWS values.
T = Trace of Precipitation, MM = Missing Value Source: Averaged Metar Reports

Daily Weather History Graph

Daily Weather History Graph

Search for Another Location

Airport:

Trip Planner

Search our weather history database for the weather conditions in past years. The results will help you decide how hot, cold, wet, or windy it might be!

Date:

Astronomy

Oct. 15, 2010 Rise Set
Actual Time 5:31 AM AST 5:06 PM AST
Civil Twilight 5:08 AM AST 5:29 PM AST
Nautical Twilight 4:42 AM AST 5:56 PM AST
Astronomical Twilight 4:15 AM AST 6:23 PM AST
Moon 12:33 PM AST (10/15) 11:42 PM AST (10/15)
Length of Visible Light 12h 21m
Length of Day
11h 34m
First Quarter, 55% of the Moon is Illuminated
Oct 15
First Quarter
Oct 23
Full
Oct 30
Last Quarter
Nov 6
New
Nov 13
First Quarter

Hourly Weather History & Observations

Time (AST) Temp. Heat Index Dew Point Humidity Pressure Visibility Wind Dir Wind Speed Gust Speed Precip Events Conditions
12:00 AM 84.2 °F 86.6 °F 66.2 °F 55% 29.83 in - NW 8.1 mph - N/A   Clear
12:30 AM 84.2 °F 86.6 °F 66.2 °F 55% 29.83 in - NW 5.8 mph - N/A   Clear
1:00 AM 84.2 °F 85.6 °F 64.4 °F 51% 29.80 in - NW 8.1 mph - N/A   Clear
1:30 AM 84.2 °F 85.6 °F 64.4 °F 51% 29.80 in - NW 6.9 mph - N/A   Clear
2:00 AM 82.4 °F 84.6 °F 66.2 °F 58% 29.80 in - WNW 4.6 mph - N/A   Clear
2:30 AM 82.4 °F 84.6 °F 66.2 °F 58% 29.83 in - West 4.6 mph - N/A   Clear
3:00 AM 82 °F - 66 °F 50% 29.83 in 9 mi West 4.6 mph - -  
3:00 AM 82.4 °F 84.6 °F 66.2 °F 58% 29.83 in - West 4.6 mph - N/A   Clear
3:30 AM 82.4 °F 84.6 °F 66.2 °F 58% 29.83 in - West 4.6 mph - N/A   Clear
4:00 AM 80.6 °F 82.7 °F 66.2 °F 61% 29.83 in - West 5.8 mph - N/A   Clear
4:30 AM 80.6 °F 82.7 °F 66.2 °F 61% 29.83 in - West 4.6 mph - N/A   Clear
5:00 AM 80.6 °F 82.7 °F 66.2 °F 61% 29.83 in - West 4.6 mph - N/A   Clear
5:30 AM 80.6 °F 82.7 °F 66.2 °F 61% 29.83 in - West 4.6 mph - N/A   Clear
6:00 AM 80.6 °F 82.7 °F 66.2 °F 61% 29.86 in - West 4.6 mph - N/A   Clear
6:30 AM 82.4 °F 85.4 °F 68.0 °F 62% 29.86 in - West 5.8 mph - N/A   Clear
7:00 AM 82.4 °F 85.4 °F 68.0 °F 62% 29.86 in - West 6.9 mph - N/A   Clear
7:30 AM 84.2 °F 87.3 °F 68.0 °F 58% 29.86 in - West 5.8 mph - N/A   Clear
8:00 AM 86.0 °F 89.4 °F 68.0 °F 55% 29.86 in - West 4.6 mph - N/A   Clear
8:30 AM 87.8 °F 92.6 °F 69.8 °F 55% 29.86 in - WNW 4.6 mph - N/A   Clear
9:00 AM 89 °F - 68 °F 41% 29.89 in 9 mi WNW 9.2 mph - -  
9:00 AM 89.6 °F 93.4 °F 68.0 °F 49% 29.89 in - WNW 9.2 mph - N/A   Clear
9:30 AM 91.4 °F 95.4 °F 68.0 °F 46% 29.89 in 6.2 mi NNW 9.2 mph - N/A   Partly Cloudy
10:00 AM 91.4 °F 94.0 °F 66.2 °F 43% 29.86 in 6.2 mi NW 10.4 mph - N/A   Partly Cloudy
10:30 AM 91.4 °F 94.0 °F 66.2 °F 43% 29.86 in 6.2 mi North 10.4 mph - N/A   Partly Cloudy
11:00 AM 91.4 °F 95.4 °F 68.0 °F 46% 29.83 in 6.2 mi North 9.2 mph - N/A   Partly Cloudy
11:30 AM 93.2 °F 96.2 °F 66.2 °F 41% 29.83 in 6.2 mi North 8.1 mph - N/A   Partly Cloudy
12:00 PM 91.4 °F 94.0 °F 66.2 °F 43% 29.80 in 6.2 mi North 10.4 mph - N/A   Partly Cloudy
12:30 PM 93.2 °F 96.2 °F 66.2 °F 41% 29.80 in 6.2 mi NNE 11.5 mph - N/A   Partly Cloudy
1:00 PM 93.2 °F 96.2 °F 66.2 °F 41% 29.80 in 6.2 mi NNE 11.5 mph - N/A   Partly Cloudy
1:30 PM 91.4 °F 95.4 °F 68.0 °F 46% 29.80 in 6.2 mi NE 10.4 mph - N/A   Partly Cloudy
2:00 PM 93.2 °F 97.7 °F 68.0 °F 44% 29.80 in 6.2 mi North 12.7 mph - N/A   Partly Cloudy
2:30 PM 91.4 °F 95.4 °F 68.0 °F 46% 29.80 in 6.2 mi NNE 11.5 mph - N/A   Partly Cloudy
3:00 PM 90 °F - 69 °F 41% 29.80 in 10 mi NNE 11.5 mph - -   Scattered Clouds
3:00 PM 91.4 °F 96.8 °F 69.8 °F 49% 29.80 in 6.2 mi NNE 11.5 mph - N/A   Partly Cloudy
3:30 PM 91.4 °F 96.8 °F 69.8 °F 49% 29.80 in 6.2 mi NNE 11.5 mph - N/A   Partly Cloudy
4:00 PM 91.4 °F 95.4 °F 68.0 °F 46% 29.80 in 6.2 mi NNE 15.0 mph - N/A   Partly Cloudy
4:30 PM 89.6 °F 94.7 °F 69.8 °F 52% 29.80 in 6.2 mi North 12.7 mph - N/A   Partly Cloudy
5:00 PM 91.4 °F 92.1 °F 62.6 °F 38% 29.80 in - NNW 11.5 mph - N/A   Clear
5:30 PM 89.6 °F 91.1 °F 64.4 °F 43% 29.80 in - NNW 13.8 mph - N/A   Clear
6:00 PM 89.6 °F 91.1 °F 64.4 °F 43% 29.83 in - NNW 10.4 mph - N/A   Clear
6:30 PM 87.8 °F 90.4 °F 66.2 °F 49% 29.83 in - NNW 12.7 mph - N/A   Clear
7:00 PM 87.8 °F 90.4 °F 66.2 °F 49% 29.83 in - NNW 11.5 mph - N/A   Clear
7:30 PM 86.0 °F 89.4 °F 68.0 °F 55% 29.83 in - North 10.4 mph - N/A   Clear
8:00 PM 86.0 °F 90.4 °F 69.8 °F 58% 29.86 in - NNW 9.2 mph - N/A   Clear
8:30 PM 86.0 °F 89.4 °F 68.0 °F 55% 29.83 in - NNW 10.4 mph - N/A   Clear
9:00 PM 86 °F - 69 °F 47% 29.85 in 10 mi NNW 9.2 mph - -  
9:00 PM 86.0 °F 89.4 °F 68.0 °F 55% 29.83 in - NNW 9.2 mph - N/A   Clear
9:30 PM 86.0 °F 90.4 °F 69.8 °F 58% 29.83 in - NNW 9.2 mph - N/A   Clear
10:00 PM 86.0 °F 90.4 °F 69.8 °F 58% 29.83 in - NNW 6.9 mph - N/A   Clear
11:00 PM 86.0 °F 90.4 °F 69.8 °F 58% 29.83 in - NW 6.9 mph - N/A   Clear